timestamp,wind_dir_avg,wind_spd_avg,wind_spd_max_dir,wind_spd_gust,battery_voltage,lat,long
2021-08-16 00:04:01+00:00,214.0,6.0,212.0,6.65,12.73,47.59359,-54.27349
2021-08-16 00:14:01+00:00,210.0,6.23,212.0,7.14,12.65,47.59359,-54.27349
2021-08-16 00:24:01+00:00,197.0,4.86,194.0,5.69,12.65,47.59359,-54.27349
2021-08-16 00:34:01+00:00,207.0,4.68,207.0,5.22,12.65,47.59359,-54.27349
2021-08-16 00:44:01+00:00,205.0,5.27,210.0,5.84,12.65,47.59359,-54.27349
2021-08-16 00:54:01+00:00,200.0,5.72,200.0,6.14,12.65,47.59359,-54.27349
2021-08-16 01:04:01+00:00,201.0,5.3,203.0,6.1,12.65,47.59359,-54.27349
2021-08-16 01:14:01+00:00,214.0,5.83,209.0,6.43,12.65,47.59359,-54.27349
2021-08-16 01:24:01+00:00,215.0,5.62,206.0,6.17,12.65,47.59359,-54.27349
2021-08-16 01:34:01+00:00,218.0,5.43,217.0,6.16,12.65,47.59359,-54.27349
2021-08-16 01:44:01+00:00,213.0,5.77,215.0,6.51,12.65,47.59359,-54.27349
2021-08-16 01:54:01+00:00,218.0,5.38,213.0,5.94,12.65,47.59359,-54.27349
2021-08-16 02:04:01+00:00,222.0,4.52,220.0,5.09,12.65,47.59359,-54.27349
2021-08-16 02:14:01+00:00,216.0,4.11,220.0,4.57,12.65,47.59359,-54.27349
2021-08-16 02:24:01+00:00,227.0,3.4,228.0,3.92,12.65,47.59359,-54.27349
2021-08-16 02:34:01+00:00,216.0,3.96,217.0,4.31,12.65,47.59359,-54.27349
2021-08-16 02:44:01+00:00,211.0,3.8,220.0,4.31,12.65,47.59359,-54.27349
2021-08-16 02:54:01+00:00,208.0,2.86,227.0,3.9,12.65,47.59359,-54.27349
2021-08-16 03:04:01+00:00,214.0,4.04,234.0,5.73,12.65,47.59359,-54.27349
2021-08-16 03:14:00+00:00,210.0,4.16,232.0,5.72,12.65,47.59359,-54.27349
2021-08-16 03:24:00+00:00,202.0,4.34,204.0,4.73,12.65,47.59359,-54.27349
2021-08-16 03:34:00+00:00,200.0,4.53,206.0,5.03,12.65,47.59359,-54.27349
2021-08-16 03:44:00+00:00,204.0,5.37,206.0,6.15,12.65,47.59359,-54.27349
2021-08-16 03:54:00+00:00,212.0,5.88,212.0,6.27,12.65,47.59359,-54.27349
2021-08-16 04:04:00+00:00,212.0,5.4,213.0,5.95,12.65,47.59359,-54.27349
2021-08-16 04:14:01+00:00,207.0,5.21,208.0,5.74,12.57,47.59359,-54.27349
2021-08-16 04:24:01+00:00,210.0,6.08,214.0,6.72,12.57,47.59359,-54.27349
2021-08-16 04:34:01+00:00,212.0,5.38,214.0,5.79,12.57,47.59359,-54.27349
2021-08-16 04:44:01+00:00,211.0,5.11,213.0,5.72,12.57,47.59359,-54.27349
2021-08-16 04:54:01+00:00,217.0,4.87,224.0,5.28,12.57,47.59359,-54.27349
2021-08-16 05:04:01+00:00,218.0,5.15,219.0,5.75,12.57,47.59359,-54.27349
2021-08-16 05:14:01+00:00,218.0,4.9,221.0,5.42,12.57,47.59359,-54.27349
2021-08-16 05:24:01+00:00,225.0,4.68,226.0,5.41,12.57,47.59359,-54.27349
2021-08-16 05:34:01+00:00,222.0,4.47,223.0,4.82,12.57,47.59359,-54.27349
2021-08-16 05:44:01+00:00,204.0,3.67,207.0,3.96,12.57,47.59359,-54.27349
2021-08-16 05:54:01+00:00,202.0,4.31,201.0,4.8,12.57,47.59359,-54.27349
2021-08-16 06:04:01+00:00,210.0,4.13,211.0,4.77,12.57,47.59359,-54.27349
2021-08-16 06:14:00+00:00,213.0,4.68,211.0,5.33,12.57,47.59359,-54.27349
2021-08-16 06:24:00+00:00,214.0,4.26,213.0,4.64,12.57,47.59359,-54.27349
2021-08-16 06:34:00+00:00,215.0,3.13,216.0,3.34,12.57,47.59359,-54.27349
2021-08-16 06:44:00+00:00,229.0,4.24,230.0,4.61,12.57,47.59359,-54.27349
2021-08-16 06:54:00+00:00,229.0,4.26,230.0,4.64,12.57,47.59359,-54.27349
2021-08-16 07:04:00+00:00,227.0,2.77,228.0,3.51,12.57,47.59359,-54.27349
2021-08-16 07:14:00+00:00,250.0,3.64,252.0,4.33,12.57,47.59359,-54.27349
2021-08-16 07:24:00+00:00,251.0,4.76,252.0,5.14,12.57,47.59359,-54.27349
2021-08-16 07:34:00+00:00,259.0,4.99,263.0,5.5,12.57,47.59359,-54.27349
2021-08-16 07:44:00+00:00,260.0,4.92,260.0,5.28,12.57,47.59359,-54.27349
2021-08-16 07:54:00+00:00,262.0,4.06,264.0,4.86,12.57,47.59359,-54.27349
2021-08-16 08:04:00+00:00,252.0,4.93,253.0,5.21,12.57,47.59359,-54.27349
2021-08-16 08:14:01+00:00,259.0,4.93,263.0,5.24,12.49,47.59359,-54.27349
2021-08-16 08:24:01+00:00,243.0,4.52,240.0,4.94,12.49,47.59359,-54.27349
2021-08-16 08:34:01+00:00,254.0,4.58,281.0,5.77,12.49,47.59359,-54.27349
2021-08-16 08:44:01+00:00,241.0,2.78,241.0,3.44,12.49,47.59359,-54.27349
2021-08-16 08:54:01+00:00,262.0,3.61,262.0,4.07,12.49,47.59359,-54.27349
2021-08-16 09:04:01+00:00,272.0,2.56,264.0,3.05,12.49,47.59359,-54.27349
2021-08-16 09:14:01+00:00,263.0,2.54,261.0,3.05,12.57,47.59359,-54.27349
2021-08-16 09:24:01+00:00,278.0,2.71,273.0,3.36,12.57,47.59359,-54.27349
2021-08-16 09:34:01+00:00,324.0,2.74,319.0,3.87,12.57,47.59359,-54.27349
2021-08-16 09:44:01+00:00,319.0,3.49,327.0,4.09,12.57,47.59359,-54.27349
2021-08-16 09:54:01+00:00,313.0,2.92,313.0,3.56,12.57,47.59359,-54.27349
2021-08-16 10:04:01+00:00,315.0,5.1,316.0,6.18,12.57,47.59359,-54.27349
2021-08-16 10:14:01+00:00,318.0,4.01,316.0,5.3,13.37,47.59359,-54.27349
2021-08-16 10:24:01+00:00,332.0,2.81,323.0,3.65,13.37,47.59359,-54.27349
2021-08-16 10:34:01+00:00,329.0,3.27,326.0,4.9,13.37,47.59359,-54.27349
2021-08-16 10:44:01+00:00,322.0,4.09,320.0,4.77,13.37,47.59359,-54.27349
2021-08-16 10:54:01+00:00,307.0,3.24,309.0,3.85,13.37,47.59359,-54.27349
2021-08-16 11:04:01+00:00,304.0,4.27,306.0,4.71,13.37,47.59359,-54.27349
2021-08-16 11:14:01+00:00,303.0,3.02,308.0,3.45,13.84,47.59359,-54.27349
2021-08-16 11:24:01+00:00,296.0,2.56,295.0,3.01,13.84,47.59359,-54.27349
2021-08-16 11:34:01+00:00,289.0,1.31,288.0,1.47,13.84,47.59359,-54.27349
2021-08-16 11:44:01+00:00,234.0,1.72,235.0,1.85,13.84,47.59359,-54.27349
2021-08-16 11:54:01+00:00,233.0,1.65,209.0,1.88,13.84,47.59359,-54.27349
2021-08-16 12:04:01+00:00,245.0,3.01,243.0,3.53,13.84,47.59359,-54.27349
2021-08-16 12:14:01+00:00,238.0,2.21,233.0,2.69,13.92,47.59359,-54.27349
2021-08-16 12:24:01+00:00,215.0,2.05,217.0,2.23,13.92,47.59359,-54.27349
2021-08-16 12:34:01+00:00,222.0,1.62,220.0,1.92,13.92,47.59359,-54.27349
2021-08-16 12:44:01+00:00,306.0,0.7,335.0,1.03,13.92,47.59359,-54.27349
2021-08-16 12:54:01+00:00,301.0,1.72,290.0,2.94,13.92,47.59359,-54.27349
2021-08-16 13:04:01+00:00,326.0,4.84,328.0,5.37,13.92,47.59359,-54.27349
2021-08-16 13:14:00+00:00,323.0,4.45,323.0,4.87,14.16,47.59359,-54.27349
2021-08-16 13:24:00+00:00,328.0,6.23,324.0,6.76,14.16,47.59359,-54.27349
2021-08-16 13:34:00+00:00,324.0,5.25,320.0,5.74,14.16,47.59359,-54.27349
2021-08-16 13:44:00+00:00,322.0,5.43,325.0,6.06,14.16,47.59359,-54.27349
2021-08-16 13:54:00+00:00,321.0,5.67,326.0,6.12,14.16,47.59359,-54.27349
2021-08-16 14:04:00+00:00,334.0,6.33,332.0,6.95,14.16,47.59359,-54.27349
2021-08-16 14:14:01+00:00,326.0,5.9,324.0,6.44,13.76,47.59359,-54.27349
2021-08-16 14:24:01+00:00,319.0,5.18,320.0,5.53,13.76,47.59359,-54.27349
2021-08-16 14:34:01+00:00,321.0,5.86,326.0,6.33,13.76,47.59359,-54.27349
2021-08-16 14:44:01+00:00,329.0,5.7,330.0,6.33,13.76,47.59359,-54.27349
2021-08-16 14:54:01+00:00,339.0,3.24,335.0,3.68,13.76,47.59359,-54.27349
2021-08-16 15:04:01+00:00,322.0,4.11,335.0,5.6,13.76,47.59359,-54.27349
2021-08-16 15:14:01+00:00,327.0,4.57,326.0,5.31,14.24,47.59359,-54.27349
2021-08-16 15:24:01+00:00,324.0,3.58,323.0,3.94,14.24,47.59359,-54.27349
2021-08-16 15:34:01+00:00,335.0,3.88,337.0,4.54,14.24,47.59359,-54.27349
2021-08-16 15:44:01+00:00,305.0,3.64,306.0,4.2,14.24,47.59359,-54.27349
2021-08-16 15:54:01+00:00,252.0,2.36,252.0,3.14,14.24,47.59359,-54.27349
2021-08-16 16:04:01+00:00,202.0,3.47,205.0,4.14,14.24,47.59359,-54.27349
2021-08-16 16:14:01+00:00,192.0,3.91,196.0,4.2,13.84,47.59359,-54.27349
2021-08-16 16:24:01+00:00,175.0,3.19,178.0,3.57,13.84,47.59359,-54.27349
2021-08-16 16:34:01+00:00,198.0,5.87,202.0,6.65,13.84,47.59359,-54.27349
2021-08-16 16:44:01+00:00,198.0,6.53,198.0,7.13,13.84,47.59359,-54.27349
2021-08-16 16:54:01+00:00,203.0,6.92,208.0,7.71,13.84,47.59359,-54.27349
2021-08-16 17:04:01+00:00,207.0,7.33,208.0,7.86,13.84,47.59359,-54.27349
2021-08-16 17:14:01+00:00,203.0,6.96,206.0,7.54,13.68,47.59359,-54.27349
2021-08-16 17:24:01+00:00,206.0,6.74,207.0,8.14,13.68,47.59359,-54.27349
2021-08-16 17:34:01+00:00,207.0,8.0,212.0,8.57,13.68,47.59359,-54.27349
2021-08-16 17:44:01+00:00,214.0,8.11,216.0,8.78,13.68,47.59359,-54.27349
2021-08-16 17:54:01+00:00,209.0,8.3,209.0,9.26,13.68,47.59359,-54.27349
2021-08-16 18:04:01+00:00,207.0,6.28,212.0,7.15,13.68,47.59359,-54.27349
2021-08-16 18:14:01+00:00,219.0,5.43,222.0,6.6,14.16,47.59359,-54.27349
2021-08-16 18:24:01+00:00,207.0,6.73,204.0,7.72,14.16,47.59359,-54.27349
2021-08-16 18:34:01+00:00,213.0,7.29,214.0,7.65,14.16,47.59359,-54.27349
2021-08-16 18:44:01+00:00,207.0,7.3,212.0,8.44,14.16,47.59359,-54.27349
2021-08-16 18:54:01+00:00,212.0,7.27,209.0,7.72,14.16,47.59359,-54.27349
2021-08-16 19:04:01+00:00,215.0,7.12,214.0,8.19,14.16,47.59359,-54.27349
2021-08-16 19:14:01+00:00,219.0,7.31,227.0,8.28,13.92,47.59359,-54.27349
2021-08-16 19:24:01+00:00,215.0,6.93,215.0,7.46,13.92,47.59359,-54.27349
2021-08-16 19:34:01+00:00,221.0,6.97,219.0,7.89,13.92,47.59359,-54.27349
2021-08-16 19:44:01+00:00,216.0,5.62,213.0,6.42,13.92,47.59359,-54.27349
2021-08-16 19:54:01+00:00,279.0,7.98,276.0,8.93,13.92,47.59359,-54.27349
2021-08-16 20:04:01+00:00,286.0,8.03,284.0,8.9,13.92,47.59359,-54.27349
2021-08-16 20:14:01+00:00,279.0,7.8,279.0,8.44,13.84,47.59359,-54.27349
2021-08-16 20:24:01+00:00,281.0,5.92,287.0,6.93,13.84,47.59359,-54.27349
2021-08-16 20:34:01+00:00,281.0,9.38,283.0,10.85,13.84,47.59359,-54.27349
2021-08-16 20:44:01+00:00,275.0,6.14,277.0,6.86,13.84,47.59359,-54.27349
2021-08-16 20:54:01+00:00,273.0,8.1,273.0,9.04,13.84,47.59359,-54.27349
2021-08-16 21:04:01+00:00,275.0,6.02,274.0,6.8,13.84,47.59359,-54.27349
2021-08-16 21:14:01+00:00,289.0,6.04,281.0,6.9,13.6,47.59359,-54.27349
2021-08-16 21:24:01+00:00,335.0,9.2,338.0,9.9,13.6,47.59359,-54.27349
2021-08-16 21:34:01+00:00,327.0,6.01,328.0,6.4,13.6,47.59359,-54.27349
2021-08-16 21:44:01+00:00,321.0,4.42,322.0,4.86,13.6,47.59359,-54.27349
2021-08-16 21:54:01+00:00,318.0,3.21,320.0,3.44,13.6,47.59359,-54.27349
2021-08-16 22:04:01+00:00,347.0,4.35,341.0,5.45,13.6,47.59359,-54.27349
2021-08-16 22:14:01+00:00,21.0,3.81,21.0,4.34,13.37,47.59359,-54.27349
2021-08-16 22:24:01+00:00,46.0,4.88,46.0,5.68,13.37,47.59359,-54.27349
2021-08-16 22:34:01+00:00,61.0,5.28,63.0,5.58,13.37,47.59359,-54.27349
2021-08-16 22:44:01+00:00,58.0,5.1,58.0,5.47,13.37,47.59359,-54.27349
2021-08-16 22:54:01+00:00,54.0,5.05,55.0,5.57,13.37,47.59359,-54.27349
2021-08-16 23:04:01+00:00,68.0,5.74,68.0,6.56,13.37,47.59359,-54.27349
2021-08-16 23:14:00+00:00,71.0,4.58,79.0,5.89,12.81,47.59359,-54.27349
2021-08-16 23:24:00+00:00,63.0,4.08,55.0,4.58,12.81,47.59359,-54.27349
2021-08-16 23:34:00+00:00,57.0,5.06,57.0,5.76,12.81,47.59359,-54.27349
2021-08-16 23:44:00+00:00,57.0,5.12,58.0,5.55,12.81,47.59359,-54.27349
2021-08-16 23:54:00+00:00,54.0,4.99,57.0,5.55,12.81,47.59359,-54.27349
